Theta_e
308 307 306 307 306 305 306 306 305 306 306 306 304 304 305 306 308 307 309 309 311 312 311 310 310 311 317 322 324 322 320 319 317 316 315 315 313 311 309 304 305 304 305 309
308 307 306 306 307 307 306 307 305 304 305 306 304 304 304 304 305 307 308 310 310 311 311 311 312 314 317 321 323 320 320 319 317 316 315 315 313 311 308 304 305 304 305 309
307 308 307 308 308 307 307 306 306 305 306 305 304 302 304 304 305 306 307 309 310 310 311 311 312 315 318 321 322 320 319 318 317 316 316 315 313 311 308 303 306 304 304 309
306 307 307 308 309 308 309 307 307 307 306 304 304 304 303 305 305 305 305 307 309 310 310 311 311 314 318 321 321 320 319 317 318 317 315 315 313 311 307 303 306 304 304 308
307 307 307 308 308 308 309 307 308 307 306 306 305 303 303 304 305 305 305 308 309 309 310 311 311 312 316 320 320 319 318 317 317 316 315 315 313 311 306 302 306 304 305 308
307 308 306 307 307 307 306 307 307 308 306 304 305 306 305 306 307 306 306 308 310 310 309 310 311 312 315 319 319 318 317 316 316 316 316 315 313 310 306 302 307 304 305 307
308 306 306 306 306 306 307 306 305 306 305 307 307 304 305 306 307 307 306 308 311 310 309 310 310 310 310 309 310 315 316 316 315 316 316 315 313 310 305 302 307 305 305 307
310 306 306 305 305 306 306 307 308 308 310 308 304 307 308 306 307 309 310 310 311 310 309 309 309 309 308 308 310 314 316 316 315 316 316 315 312 309 304 303 306 305 305 306
308 308 306 306 305 305 305 306 308 306 299 306 307 306 306 306 306 306 307 309 310 310 310 309 309 309 309 309 311 314 316 315 315 316 316 315 312 308 304 303 306 306 305 305
310 309 306 305 306 305 305 305 307 304 305 309 308 309 310 311 308 306 305 306 309 310 310 310 310 310 310 311 313 314 315 314 315 315 316 314 311 307 304 303 306 306 305 305
309 309 307 305 305 306 306 306 306 306 308 309 308 311 308 311 310 307 305 308 308 310 310 311 311 311 311 313 314 314 314 314 315 315 315 313 310 306 303 303 306 306 306 305
309 309 304 307 306 305 307 307 308 308 305 307 310 312 310 310 309 308 309 310 309 309 311 311 312 312 312 313 313 313 314 314 315 315 315 312 308 306 304 303 306 307 306 306
310 307 303 309 309 306 306 306 307 308 306 308 309 309 308 308 308 309 308 309 309 310 312 312 313 312 312 312 313 313 313 314 315 315 314 311 307 306 304 303 306 307 306 306
310 309 310 310 309 307 307 306 306 307 305 309 309 309 310 308 308 308 309 309 309 309 310 312 313 313 313 312 312 313 313 314 314 314 313 311 307 306 305 303 305 307 306 306
310 312 310 309 307 308 307 306 306 305 308 307 310 305 308 309 308 307 309 308 308 308 310 311 313 313 313 313 313 313 313 314 314 313 313 310 307 306 305 303 304 306 307 306
307 310 310 312 309 308 309 307 306 307 307 306 308 308 308 309 310 310 311 308 308 308 308 309 311 312 313 313 313 313 313 313 313 313 312 309 307 306 306 304 303 304 306 306
302 305 309 310 310 310 311 310 306 306 307 307 307 308 307 308 309 309 310 311 311 311 310 309 309 309 310 312 312 312 313 313 312 312 311 309 306 306 305 305 304 303 304 305
300 301 304 308 306 310 309 309 309 307 307 307 307 307 308 308 309 310 312 314 314 313 311 310 309 308 309 310 311 311 312 312 312 312 311 308 306 306 305 305 304 304 303 303
299 299 303 305 298 306 306 307 308 309 310 308 307 307 307 308 309 309 310 311 313 313 313 313 312 310 308 308 309 310 311 311 311 311 310 308 306 306 305 305 304 304 303 303
299 299 300 300 301 304 303 305 305 306 309 308 309 309 308 306 307 308 309 310 311 313 313 313 312 311 308 307 307 308 309 309 310 310 310 308 307 306 306 305 305 304 304 303
294 297 299 300 302 301 301 301 302 304 310 305 308 308 309 307 308 309 309 310 310 311 312 312 312 311 311 308 307 307 308 308 308 309 309 308 307 306 306 306 305 304 304 303
294 296 298 293 298 300 300 302 301 302 304 304 305 305 306 307 309 309 309 309 310 311 311 312 310 310 309 307 306 307 307 307 308 308 308 307 307 307 306 305 305 304 303 303
294 294 295 298 298 298 299 299 300 301 302 303 305 305 303 305 306 307 308 310 310 311 311 311 310 309 309 307 306 306 307 307 307 307 307 307 307 306 305 305 304 304 303 302
294 295 296 295 297 299 301 301 302 303 304 306 305 306 303 303 305 305 306 309 309 310 311 310 310 309 308 306 305 305 306 306 306 307 306 306 305 305 304 304 303 303 303 302
295 296 295 298 298 300 300 301 302 303 303 303 301 302 303 304 303 305 306 307 309 310 310 309 309 309 308 306 304 304 305 306 306 305 305 304 303 303 303 303 301 302 302 301
297 297 298 298 300 300 300 302 302 302 302 301 301 301 301 302 303 304 306 305 309 309 309 308 308 308 306 304 303 304 304 304 304 303 303 303 303 303 303 302 301 301 300 301
Wind_Speed
8 4 10 11 12 5 3 1 2 4 3 4 7 9 11 19 23 20 25 19 20 18 16 20 21 28 30 30 29 28 26 26 23 20 17 14 11 8 5 2 1 2 3 4
4 13 7 8 7 8 7 4 5 6 3 3 5 10 13 12 14 28 30 31 26 24 22 23 22 29 32 33 32 29 27 27 23 19 16 13 12 10 6 4 3 3 3 3
8 5 19 13 8 11 7 8 4 6 4 4 5 7 7 7 15 27 30 35 33 32 29 30 30 32 33 34 33 31 28 26 23 21 20 17 15 12 9 6 5 4 5 4
10 10 9 10 11 9 8 8 8 5 1 4 2 5 7 9 8 6 25 33 37 33 31 35 35 35 35 35 33 30 27 25 25 24 21 17 13 11 8 7 7 6 6 5
10 10 17 8 8 10 5 2 8 4 3 2 2 3 7 4 6 11 13 25 29 32 34 37 40 34 34 34 34 32 28 25 27 25 21 18 16 12 10 8 9 8 7 7
8 8 9 9 5 11 7 6 6 5 3 2 9 8 4 6 10 6 6 20 23 24 29 31 40 36 35 35 35 33 30 27 26 26 23 20 17 13 11 10 10 9 9 9
5 5 4 9 7 4 5 7 2 2 1 7 3 4 6 7 8 7 7 15 13 19 30 29 36 37 36 37 37 36 32 30 28 28 25 22 18 14 11 10 10 10 10 10
13 5 12 5 8 9 7 8 6 8 4 3 3 8 6 15 14 9 12 16 15 18 23 28 32 36 36 36 37 37 34 32 30 30 26 23 19 15 12 11 11 11 10 10
8 8 6 17 6 13 6 9 6 5 2 2 5 7 8 10 10 7 6 7 15 18 20 24 26 29 33 34 36 36 35 32 32 31 28 24 21 18 15 13 13 11 11 11
5 2 9 9 7 6 10 11 4 2 4 4 5 6 8 3 11 6 7 15 20 22 21 22 25 28 30 32 33 33 32 31 32 32 29 25 21 18 16 14 13 12 12 12
3 4 2 8 10 16 6 8 4 6 5 5 1 6 8 16 11 9 11 22 23 26 26 24 24 26 28 30 32 32 32 33 34 33 29 26 23 20 17 14 14 13 12 12
13 3 4 15 2 10 15 9 15 8 6 4 3 9 3 9 9 7 5 11 17 21 23 22 23 25 27 30 31 32 33 35 35 32 30 27 24 21 18 17 16 15 13 13
16 6 3 2 5 4 17 12 20 4 3 12 7 6 1 2 5 5 8 11 13 17 20 21 22 26 27 28 31 34 34 35 33 32 31 29 26 23 20 18 17 15 14 13
12 9 22 18 22 8 9 17 13 14 2 6 20 3 2 5 7 3 6 11 14 18 20 22 24 27 28 28 31 34 34 33 34 33 32 30 28 24 21 19 17 16 15 14
6 11 15 22 8 18 14 15 20 14 27 8 31 11 8 5 6 8 11 9 13 18 22 23 26 28 28 29 30 33 35 34 33 32 32 30 27 24 22 20 18 17 16 14
0 2 6 20 20 19 4 19 20 24 26 18 29 19 6 16 16 6 9 13 17 20 22 22 24 26 30 32 32 34 35 34 33 33 32 30 29 27 25 22 20 18 17 16
3 2 2 13 10 16 18 17 21 23 23 27 17 27 5 14 10 10 19 21 23 24 23 23 26 28 30 32 33 35 35 34 34 33 32 33 31 29 26 24 21 19 18 16
7 6 4 3 1 13 6 19 17 17 18 19 24 19 16 12 25 25 27 27 30 30 23 24 26 28 30 30 32 33 33 34 35 34 34 34 32 29 27 25 22 20 19 17
12 7 5 5 4 5 7 3 17 19 24 21 19 21 22 27 22 34 27 34 33 26 20 20 21 26 30 31 33 33 33 34 35 36 36 34 32 31 29 27 24 22 20 19
15 17 11 4 4 7 5 3 11 1 21 22 24 26 21 9 9 23 19 27 25 26 32 31 27 26 31 34 35 36 36 36 37 37 36 33 32 31 29 26 24 22 20 17
5 6 16 14 9 5 9 6 8 0 2 9 25 32 28 12 23 28 24 18 23 30 34 35 34 30 31 36 39 40 39 39 37 34 33 33 31 29 27 25 24 23 21 21
7 7 8 5 11 20 8 6 15 6 22 1 17 19 20 14 28 40 42 39 34 33 36 37 33 31 31 36 41 43 41 37 34 34 34 34 32 30 28 26 25 24 23 21
15 12 11 10 5 7 27 26 29 25 29 27 15 15 15 14 17 22 25 40 39 35 33 31 32 31 31 34 41 44 42 37 36 36 36 35 32 30 28 28 27 26 23 22
11 8 7 5 9 6 29 24 26 27 31 32 21 23 15 15 24 26 23 21 39 45 47 41 34 31 34 36 40 41 40 38 37 37 36 34 32 31 29 27 26 24 23 22
11 9 8 10 14 4 26 25 34 28 25 22 20 21 27 25 29 30 29 27 25 42 49 43 38 35 37 39 40 40 40 40 38 36 35 34 31 29 29 26 24 21 20 18
5 8 8 9 7 17 31 31 29 27 27 29 23 26 29 28 28 31 32 27 24 32 44 40 40 38 39 41 41 41 41 40 39 38 36 34 32 31 29 29 27 24 20 20
Wind_Direction
189 167 201 197 197 205 115 86 323 286 224 163 220 259 268 272 278 255 253 250 234 227 235 221 225 213 213 218 217 215 210 208 211 212 210 211 219 219 226 231 226 108 112 88
149 227 195 196 203 221 259 276 274 287 193 219 254 262 263 252 244 249 238 244 237 228 220 216 214 209 213 216 214 213 212 213 211 211 214 215 216 214 211 213 199 149 136 116
193 210 185 197 193 209 217 220 224 224 331 287 333 286 273 275 245 252 247 245 244 231 221 209 207 209 211 213 214 214 212 213 209 206 208 208 211 210 206 202 190 168 153 140
233 227 157 193 218 191 226 195 212 224 101 239 71 286 300 274 269 231 241 233 235 234 229 214 207 208 210 212 214 216 216 214 206 207 209 215 221 215 205 198 186 174 160 153
222 177 203 205 190 182 207 169 192 182 175 351 241 261 267 262 255 241 239 231 231 231 223 217 209 212 211 212 213 215 216 213 208 208 205 207 208 208 209 199 185 174 167 158
192 186 177 188 170 177 140 87 53 53 86 298 200 192 235 220 229 249 246 240 238 230 218 222 210 210 206 209 214 216 213 213 209 205 202 205 209 209 207 197 185 174 171 165
155 194 183 151 121 111 134 116 27 1 339 233 167 184 246 252 251 217 246 240 232 216 203 206 206 202 204 208 212 213 212 212 207 203 202 205 205 207 206 201 188 180 175 169
180 205 172 180 167 158 163 164 162 198 208 247 81 233 257 230 250 256 245 242 206 194 197 207 205 203 205 209 212 214 212 211 205 200 200 203 204 205 203 198 190 181 176 172
169 230 159 173 150 142 202 209 164 105 25 58 221 280 296 253 265 235 189 170 181 187 196 202 207 208 207 211 213 215 213 211 203 199 199 201 202 203 202 196 190 184 178 175
192 134 192 178 117 243 177 142 165 7 156 243 267 251 227 200 237 234 196 205 202 200 203 205 205 207 210 212 212 212 214 210 201 198 199 201 202 203 202 197 193 186 180 179
187 132 299 133 212 175 145 182 180 139 177 184 242 257 214 218 215 217 225 224 213 207 204 205 205 207 207 207 208 208 206 200 197 197 197 198 199 202 201 197 194 190 186 184
203 145 151 202 272 197 207 188 179 182 215 221 175 242 243 223 219 209 222 199 207 214 205 205 205 203 204 206 204 203 200 196 197 196 197 198 199 201 199 198 194 189 188 186
200 201 112 102 323 244 212 211 199 118 97 207 189 248 333 136 102 145 145 165 182 196 198 199 202 205 203 205 205 201 199 196 195 197 197 197 198 200 199 198 196 190 189 188
174 207 214 214 215 126 194 195 204 216 154 189 228 185 342 162 154 179 152 176 181 188 199 201 203 208 209 208 204 203 202 199 197 199 198 199 199 199 198 197 195 193 190 189
237 217 228 232 219 190 197 197 202 207 229 191 241 181 228 211 205 210 209 190 183 193 200 209 208 209 211 209 206 206 206 202 202 201 201 200 199 198 198 198 195 194 192 189
86 251 207 240 230 226 182 203 198 207 225 234 246 258 172 268 265 191 197 195 203 208 212 216 220 216 216 213 209 207 209 207 205 204 204 202 200 198 199 199 197 195 195 194
296 318 295 252 207 215 227 210 200 214 222 219 233 238 205 223 238 263 242 237 236 242 226 222 229 224 219 219 216 213 211 208 208 208 206 204 202 201 200 200 199 199 198 199
270 328 315 303 145 229 234 204 199 220 233 226 247 243 244 248 256 260 263 258 255 255 243 234 233 229 226 221 220 218 213 211 211 209 208 206 204 203 203 202 202 202 202 203
203 229 265 242 235 340 282 211 198 198 232 232 244 249 245 242 269 276 262 255 260 264 264 252 244 241 229 222 219 216 214 211 210 210 209 207 205 205 205 205 204 204 207 207
202 207 226 264 219 218 215 173 77 318 240 228 234 245 243 188 218 253 253 258 265 265 259 257 249 239 230 222 217 213 214 212 210 208 208 207 208 209 210 208 206 207 209 210
180 197 225 238 248 223 244 249 308 191 303 338 266 247 245 212 228 251 255 255 254 255 252 251 244 234 231 221 215 212 212 212 211 205 204 205 207 210 212 211 210 209 208 208
177 182 210 220 234 247 246 245 217 232 256 318 319 339 302 285 257 252 252 250 252 255 259 248 241 232 228 219 213 213 211 211 207 203 201 201 203 205 209 210 207 206 209 209
230 215 227 205 205 189 251 247 238 242 255 251 250 295 320 313 281 278 270 255 248 241 244 246 236 228 225 219 215 213 212 206 201 200 198 198 199 202 204 206 206 206 205 209
223 192 200 210 231 239 260 247 226 219 228 237 252 255 276 303 295 294 290 265 249 241 244 240 225 223 221 214 213 213 210 202 200 197 196 196 196 195 197 200 205 205 208 207
215 162 199 235 235 241 240 239 221 206 217 227 251 261 269 276 291 289 289 279 272 249 240 231 224 223 220 212 206 205 204 200 197 196 194 193 192 191 190 195 196 199 204 210
179 203 211 231 219 214 233 237 220 216 237 245 248 256 265 260 269 279 276 281 267 251 231 221 218 221 215 208 202 197 196 197 193 189 188 188 184 183 185 185 186 190 199 200